, FL

(GMT )
Crestview

Weather History for KEGI - August, 2013

Change the Weather History Date:

Saturday, August 31, 2013

  Actual Average Record
Temperature  
Mean Temperature 82 °F -  
Max Temperature 91 °F - - ()
Min Temperature 74 °F - - ()
Cooling Degree Days 18    
Growing Degree Days 32 (Base 50)    
Moisture  
Dew Point 75 °F    
Average Humidity 86    
Maximum Humidity 99    
Minimum Humidity 60    
Precipitation  
Precipitation 0.60 in - - ()
Sea Level Pressure  
Sea Level Pressure 29.91 in    
Wind  
Wind Speed 4 mph (NW)    
Max Wind Speed 12 mph    
Max Gust Speed -    
Visibility 8 miles    
Events Fog , Rain , Thunderstorm    
Averages and records for this station are not official NWS values.
T = Trace of Precipitation, MM = Missing Value Source: NWS Daily Summary

Daily Weather History Graph

Daily Weather History Graph

Search for Another Location

Airport or City:

Trip Planner

Search our weather history database for the weather conditions in past years. The results will help you decide how hot, cold, wet, or windy it might be!

Date:

Astronomy

Aug. 31, 2013 Rise Set
Actual Time 6:22 AM CDT 7:09 PM CDT
Civil Twilight 5:57 AM CDT 7:34 PM CDT
Nautical Twilight 5:28 AM CDT 8:03 PM CDT
Astronomical Twilight 4:58 AM CDT 8:32 PM CDT
Moon 2:02 AM CDT (8/31) 3:57 PM CDT (8/31)
Length of Visible Light 13h 36m
Length of Day
12h 47m
Waning Crescent, 21% of the Moon is Illuminated
Aug 31
Waning Crescent
Sep 5
New
Sep 12
First Quarter
Sep 19
Full
Sep 26
Last Quarter

Hourly Weather History & Observations

Time (CDT) Temp. Heat Index Dew Point Humidity Pressure Visibility Wind Dir Wind Speed Gust Speed Precip Events Conditions
12:58 AM 79.0 °F - 73.2 °F 82% 29.92 in 10.0 mi WNW 4.6 mph - N/A   Clear
1:58 AM 77.7 °F - 74.3 °F 89% 29.91 in 10.0 mi NE 4.6 mph - N/A   Mostly Cloudy
2:58 AM 77.9 °F - 74.7 °F 90% 29.89 in 10.0 mi NNE 1.2 mph - N/A   Clear
3:06 AM 77.0 °F - 75.2 °F 94% 29.88 in 10.0 mi NNW 2.3 mph - N/A   Light Drizzle
3:21 AM 77.0 °F - 75.2 °F 94% 29.88 in 10.0 mi North 1.2 mph - N/A   Clear
3:58 AM 76.8 °F - 75.4 °F 95% 29.87 in 10.0 mi West 4.6 mph - 0.00 in   Partly Cloudy
4:58 AM 77.2 °F - 74.7 °F 92% 29.90 in 10.0 mi WSW 2.3 mph - N/A   Partly Cloudy
5:58 AM 76.8 °F - 74.7 °F 93% 29.91 in 10.0 mi NW 1.2 mph - N/A   Clear
6:58 AM 76.3 °F - 75.2 °F 96% 29.94 in 9.0 mi Calm Calm - N/A   Clear
7:58 AM 80.2 °F 85.4 °F 74.8 °F 84% 29.95 in 10.0 mi Calm Calm - N/A   Partly Cloudy
8:58 AM 82.8 °F 89.5 °F 74.5 °F 76% 29.94 in 10.0 mi NE 4.6 mph - N/A   Clear
9:58 AM 84.2 °F 91.9 °F 74.8 °F 73% 29.95 in 10.0 mi ENE 3.5 mph - N/A   Partly Cloudy
10:58 AM 86.4 °F 96.0 °F 75.6 °F 70% 29.95 in 10.0 mi Variable 2.3 mph - N/A   Scattered Clouds
11:58 AM 88.2 °F 98.5 °F 75.6 °F 66% 29.94 in 10.0 mi Variable 3.5 mph - N/A   Scattered Clouds
12:58 PM 90.7 °F 101.3 °F 75.0 °F 60% 29.92 in 10.0 mi NE 2.3 mph - N/A   Clear
1:58 PM 88.5 °F 99.9 °F 76.1 °F 67% 29.91 in 10.0 mi South 8.1 mph - N/A   Partly Cloudy
2:12 PM 89.6 °F 102.2 °F 77.0 °F 66% 29.90 in 10.0 mi SSW 10.4 mph - N/A Thunderstorm Thunderstorm
2:54 PM 84.2 °F 92.3 °F 75.2 °F 74% 29.90 in 10.0 mi WSW 6.9 mph - N/A   Scattered Clouds
2:58 PM 84.0 °F 91.5 °F 74.5 °F 73% 29.91 in 10.0 mi West 6.9 mph - N/A Thunderstorm Scattered Clouds
3:39 PM 77.0 °F - 73.4 °F 89% 29.92 in 10.0 mi NW 11.5 mph - N/A Thunderstorm Thunderstorm
3:41 PM 77.0 °F - 73.4 °F 89% 29.92 in 9.0 mi NW 10.4 mph - N/A Rain , Thunderstorm Light Thunderstorms and Rain
3:46 PM 77.0 °F - 75.2 °F 94% 29.91 in 2.0 mi NW 10.4 mph - N/A Rain , Thunderstorm Heavy Thunderstorms and Rain
3:51 PM 77.0 °F - 75.2 °F 94% 29.91 in 0.8 mi NW 10.4 mph - N/A Rain , Thunderstorm Heavy Thunderstorms and Rain
3:56 PM 77.0 °F - 73.4 °F 89% 29.91 in 0.5 mi NNW 9.2 mph - N/A Fog , Rain , Thunderstorm Heavy Thunderstorms and Rain
3:58 PM 76.5 °F - 74.3 °F 93% 29.91 in 0.5 mi NW 8.1 mph - 0.42 in Fog , Rain , Thunderstorm Heavy Thunderstorms and Rain
4:08 PM 75.2 °F - 73.4 °F 94% 29.91 in 1.2 mi West 2.3 mph - N/A Rain , Thunderstorm Light Thunderstorms and Rain
4:10 PM 77.0 °F - 71.6 °F 83% 29.90 in 2.5 mi WSW 3.5 mph - N/A Rain Light Rain
4:15 PM 77.0 °F - 73.4 °F 89% 29.91 in 8.0 mi NE 1.2 mph - N/A Rain Light Rain
4:20 PM 77.0 °F - 73.4 °F 89% 29.90 in 10.0 mi SE 2.3 mph - N/A Rain Light Rain
4:36 PM 77.0 °F - 75.2 °F 94% 29.88 in 10.0 mi NW 5.8 mph - N/A   Partly Cloudy
4:58 PM 79.0 °F - 74.3 °F 85% 29.88 in 10.0 mi NW 4.6 mph - 0.18 in   Clear
5:58 PM 78.4 °F - 75.0 °F 89% 29.89 in 10.0 mi NW 5.8 mph - N/A   Clear
6:58 PM 78.3 °F - 75.4 °F 91% 29.89 in 10.0 mi NW 3.5 mph - N/A   Clear
7:58 PM 76.8 °F - 75.9 °F 97% 29.88 in 10.0 mi Calm Calm - N/A   Clear
8:58 PM 76.3 °F - 75.2 °F 96% 29.91 in 10.0 mi NW 3.5 mph - N/A   Clear
9:58 PM 75.9 °F - 75.6 °F 99% 29.92 in 9.0 mi NE 2.3 mph - N/A   Clear
10:58 PM 75.2 °F - 74.7 °F 98% 29.91 in 10.0 mi SSW 4.6 mph - N/A   Clear
11:58 PM 74.8 °F - 74.3 °F 98% 29.91 in 10.0 mi SSW 4.6 mph - N/A   Clear